Terug naar catalogus

WGS 6

USA 244

ActiefMilitairGEO
NORAD 39222·PAYLOAD·🇺🇸 United States

Gelanceerd Aug 8, 2013 vanaf Cape Canaveral Space Force Station

Loading…

TLE

VersSource: Space-Track

Epoch: Sep 14, 2026, 13:27 UTC

1 39222U 13041A   26257.56054234  .00000081  00000-0  00000-0 0  9997
2 39222   0.0139 185.1231 0000186 182.3593  52.6362  1.00270980 46955

Volg WGS 6 in realtime met AllMySat

Download on the App Store